www.pogodaiklimat.ru

АРХИВ ПОГОДЫ в London

Время (UTC), дата Ветер
(напр.,м/с)
 
Видим.   Явления Облачность Т
(С)
Тd
(С)
f
(%)
Тe
(С)
Тes
(С)
Комфортность P
(гПа)
Po
(гПа)
Тmin
(С)
Tmax
(С)
R
(мм)
S
(см)
06 16.01 В 2 2600 м дождь н/о +5.4 +5.1 98 +3 +3 по сезону 1025.9 1022.8 +5.4 2
07 16.01 ЮВ 2 5000 м слаб. морось н/о +5.3 +5.0 98 +2 +2 тепло 1026.2 1023.0
08 16.01 ЮВ 3 3400 м слаб. дождь н/о +5.0 +4.7 98 +2 +2 по сезону 1026.8 1023.7
09 16.01 ЮВ 3 4800 м дождь н/о +4.7 +4.4 98 +1 +1 по сезону 1027.5 1024.3
10 16.01 ЮВ 3 5000 м дождь н/о +4.8 +4.3 97 +1 +1 тепло 1027.7 1024.6
11 16.01 ЮВ 3 8000 м дождь н/о +4.8 +3.7 93 +1 +1 по сезону 1028.0 1024.9
12 16.01 ЮВ 3 6000 м дождь н/о +4.9 +4.0 94 +2 +2 по сезону 1028.0 1024.8 3
13 16.01 ЮВ 2 11 км слаб. морось н/о +4.8 +3.8 93 +2 +2 тепло 1027.7 1024.5
14 16.01 ЮВ 2 10 км слаб. морось н/о +4.9 +3.8 93 +2 +2 по сезону 1027.9 1024.8
15 16.01 ЮВ 3 24 км в посл. час морось н/о +4.9 +3.4 90 +2 +2 по сезону 1028.2 1025.1
16 16.01 ЮВ 2 27 км н/о +4.6 +3.2 91 +2 +2 тепло 1028.4 1025.2
17 16.01 ЮВ 2 22 км н/о +4.5 +3.0 90 +2 +2 по сезону 1028.8 1025.7
18 16.01 ЮВ 3 16 км н/о +4.4 +3.1 91 +1 +1 по сезону 1029.5 1026.3 +5.4 4
19 16.01 ЮВ 2 13 км н/о +4.5 +3.3 92 +2 +2 тепло 1030.2 1027.1
20 16.01 ЮВ 2 17 км н/о +4.7 +3.0 89 +2 +2 по сезону 1030.7 1027.6
21 16.01 ЮВ 2 16 км н/о +4.7 +2.9 88 +3 +3 по сезону 1031.3 1028.2
22 16.01 В 1 14 км н/о +4.3 +3.1 92 +3 +3 тепло 1031.9 1028.7
23 16.01 В 1 12 км н/о +4.3 +2.8 90 +3 +3 тепло 1032.0 1028.9
00 17.01 СВ 1 11 км н/о +3.9 +2.9 93 +4 +4 по сезону 1032.4 1029.3
01 17.01 ЮВ 2 7000 м дымка н/о +3.2 +2.4 94 0 0 тепло 1032.4 1029.2
02 17.01 В 2 7000 м дымка н/о +2.4 +1.6 94 -0 -0 по сезону 1033.2 1030.0
03 17.01 ЮВ 2 10 км дымка н/о +1.9 +1.2 95 -1 -1 по сезону 1033.4 1030.2
04 17.01 В 1 10 км дымка н/о +1.8 +1.4 97 -0 -0 тепло 1033.7 1030.5
05 17.01 СВ 1 7000 м дымка н/о +1.3 +1.0 98 +1 +1 по сезону 1034.0 1030.8
06 17.01 СВ 1 9000 м дымка н/о +1.4 +1.0 97 +1 +1 по сезону 1034.5 1031.3 +0.1
07 17.01 ЮВ 2 7000 м дымка н/о +0.7 +0.2 96 -3 -3 по сезону 1034.9 1031.7
08 17.01 В 1 8000 м дымка н/о +0.7 +0.4 98 0 0 по сезону 1035.7 1032.5
09 17.01 В 2 6000 м дымка н/о +0.8 +0.5 98 -2 -2 прохладно 1036.3 1033.0
10 17.01 В 1 5000 м дым н/о +3.0 +2.1 94 +1 +1 тепло 1036.6 1033.4
11 17.01 ЮВ 3 7000 м дым н/о +4.4 +0.8 77 +1 +1 по сезону 1036.9 1033.7
12 17.01 ЮВ 3 14 км н/о +5.5 -1.6 60 +3 +3 по сезону 1036.9 1033.8
13 17.01 Ю 2 15 км н/о +6.0 -3.0 52 +4 +4 тепло 1036.6 1033.5
14 17.01 ЮВ 1 11 км н/о +6.1 -3.3 51 +6 +6 тепло 1036.4 1033.2
15 17.01 ЮВ 2 24 км н/о +5.4 -4.6 48 +4 +4 по сезону 1036.5 1033.3
16 17.01 Ю 2 17 км н/о +4.3 -3.9 55 +3 +3 тепло 1036.9 1033.7
17 17.01 Ю 2 16 км н/о +2.7 -3.8 62 0 0 по сезону 1037.0 1033.8
18 17.01 ЮВ 3 23 км н/о +2.1 -4.4 62 -1 -1 прохладно 1037.4 1034.2 +6.6
19 17.01 ЮВ 2 11 км н/о +0.3 -3.2 77 -3 -3 по сезону 1037.7 1034.4
20 17.01 ЮВ 2 10 км дым н/о +0.3 -2.6 81 -3 -3 по сезону 1038.1 1034.9
21 17.01 ЮВ 3 8000 м дым н/о +0.1 -2.0 86 -4 -4 холодно 1038.3 1035.1
22 17.01 Ю 2 8000 м дым н/о +0.4 -2.1 83 -3 -3 по сезону 1038.2 1035.0
23 17.01 Ю 2 7000 м дым н/о -0.5 -2.8 84 -4 -4 по сезону 1038.4 1035.1
00 18.01 ЮВ 1 6000 м дым н/о -1.4 -2.4 93 -4 -4 холодно 1038.7 1035.4
01 18.01 штиль 0 6000 м дымка н/о -1.4 -2.1 95 -3 -3 по сезону 1038.7 1035.4
02 18.01 СВ 1 4600 м дымка н/о -1.8 -2.6 94 -3 -3 по сезону 1038.8 1035.5
03 18.01 штиль 0 3700 м дымка н/о -3.0 -3.6 96 -4 -4 холодно 1038.8 1035.6
04 18.01 СВ 1 4900 м дымка н/о -2.3 -2.7 97 -3 -3 по сезону 1038.6 1035.4
05 18.01 С 1 5000 м дымка н/о -2.2 -2.7 96 -3 -3 по сезону 1038.5 1035.2
06 18.01 СВ 1 4000 м дым н/о -2.8 -3.7 94 -4 -4 прохладно 1038.4 1035.2 -3.3
07 18.01 СВ 1 5000 м дымка н/о -2.1 -2.6 96 -5 -5 по сезону 1038.8 1035.5
08 18.01 С 1 5000 м дымка н/о -2.7 -3.5 94 -4 -4 по сезону 1039.0 1035.8
09 18.01 СВ 1 6000 м дымка н/о -1.2 -1.7 96 -2 -2 прохладно 1039.6 1036.3
10 18.01 С 1 7000 м дым н/о +0.4 -1.4 88 -2 -2 по сезону 1039.6 1036.4
11 18.01 ЮВ 2 17 км н/о +3.4 -2.4 66 +1 +1 по сезону 1039.6 1036.4
12 18.01 В 1 30 км н/о +5.1 -5.0 48 +4 +4 по сезону 1039.3 1036.1
13 18.01 СЗ 1 17 км н/о +4.3 -5.3 50 +4 +4 тепло 1039.0 1035.8

 

Местоположение метеостанции London (Великобритания): широта 51.48 долгота -0.45 высота над уровнем моря 25 м.

В архиве по умолчанию представлена погода в London за последнюю неделю. Архивные данные за месяц целиком и за предыдущие месяцы, начиная с января 2011 года, Вы можете получить, выбрав интересующий диапазон дат из раскрывающегося списка и нажав кнопку "Ввод!".

Внимание! Время в таблицах - всемирное. Для получения местного времени необходимо прибавить поправку, которая в London равна 0 ч.

Ветер - указаны скорость ветра в м/с - средняя за 10 мин, порывы в срок и между сроками (в фигурных скобках) и направление, откуда дует ветер: С - северный, СВ - северо-восточный, В - восточный, ЮВ - юго-восточный, Ю - южный, ЮЗ - юго-западный, З - западный, СЗ - северо-западный.
Видимость - горизонтальная дальность видимости в метрах или километрах. При видимости от 1 до 10 км при отсутствии осадков обычно наблюдается дымка, при ухудшении видимости до 1 км и менее - туман. В сухую погоду видимость может ухудшаться дымом, пылью или мглою.
Явления - указаны атмосферные явления, наблюдавшиеся в срок или в последний час перед сроком; фигурными скобками обозначены явления, наблюдавшиеся между сроками (за 1-3 часа до срока); квадратными скобками обозначены град или гололедные отложения с указанием их диаметра в мм.
Облачность - указаны через наклонную черту общая и нижняя облачность в баллах и высота нижней границы облаков в метрах; квадратными скобками обозначены формы облаков: Ci - перистые, Cs - перисто-слоистые, Cc - перисто-кучевые, Ac - высококучевые, As - высокослоистые, Sc - слоисто-кучевые, Ns - слоисто-дождевые, Cu - кучевые, Cb - кучево-дождевые. Подробнее классификацию облаков см. в Атласе облаков (PDF).
T - Температура воздуха - температура, измеренная на высоте 2 м над землей.
Td - Температура точки росы - температура, при понижении до которой содержащийся в воздухе водяной пар достигнет насыщения.
f - Относительная влажность воздуха - влажноcть воздуха, измеренная на высоте 2 м над землей.
Te - Эффективная температура - температура, которую ощущает одетый по сезону человек в тени. Характеристика душности погоды. При расчете учитывается влияние влажности воздуха и скорости ветра на теплоощущения человека.
Tes - Эффективная температура на солнце - температура, которую ощущает человек, с поправкой на солнечный нагрев. Характеристика знойности погоды. Зависит от высоты солнца над горизонтом, облачности и скорости ветра. Ночью, в пасмурную погоду, а также при ветре 12 м/с и более поправка равна нулю.
P - Атмосферное давление - приведенное к уровню моря атмосферное давление.
Po - Атмосферное давление - измеренное на уровне метеостанции атмосферное давление.
Tmin - Минимальная температура - минимум температуры воздуха на высоте 2 м над землей.
Tmax - Максимальная температура - максимум температуры воздуха на высоте 2 м над землей.
R - Количество осадков - Количество выпавших осадков, мм. При наведении курсора мыши на число - период времени, за который выпало указанное количество осадков.
S - Снежный покров - Высота снежного покрова, см. При наведении курсора мыши на число - состояние снежного покрова и степень покрытия местности в баллах.